Tracking 25701 objects as of 4-Jul-2022
HD Live streaming from Space Station
objects crossing your sky now

FENGYUN 1C DEB

Track FENGYUN 1C DEB now!
10-day predictions


NORAD ID: 32448
Int'l Code: 1999-025DBL
Perigee: 707.8 km
Apogee: 736.4 km
Inclination: 99.0 °
Period: 99.1 minutes
Semi major axis: 7093 km
RCS: 0.0149 m2 (small)
Launch date: May 10, 1999
Source: People's Republic of China (PRC)
Launch site: Taiyaun Space Center, China (TSC)

Note: This is SATELLITE DEBRIS
aabbcc
Your satellite tracking list
Your tracking list is empty




NASA's NSSDC Master Catalog

Two Line Element Set (TLE):
1 32448U 99025DBL 22181.88072028  .00004445  00000-0  10796-2 0  9997
2 32448  98.9598  51.1107 0020147 261.3054 162.9042 14.53290853768927
Source of the keplerian elements: AFSPC